No particular awareness of the weather is required.    There are no Weather-warnings


Meteo18 Weather Cam more information Meteo18 Weather Cam


Thunder radar more information blitzortung!


Rain radar more information rain snow radar


Visit our other weather sites:

Template documentation
and downloads

And another site



Weather Underground History page Text

Daily Summary for February 12, 2016 Units:  Metric    English   Both
« Previous Day
Next Day »
Daily Weekly Monthly Yearly Custom
  High: Low: Average:
Temperature: -17.8 °C -16.9 °C -15.3 °C
Dew Point: -17.8 °C -17.1 °C -15.7 °C
Humidity: Humidity % 89 % 95 %
Wind Speed: 0 km/h 0 km/h 3.1 km/h
Wind Gust: 0 km/h - -
Wind:- - SW
Pressure: 0 hPa 33490.9 hPa -
Precipitation: 464.82 mm    
Historical Graphs
 
 
Tabular Data for February 12, 2016
Time Temperature Dew Point Pressure Wind Wind Speed Wind Gust Humidity Rainfall Rate (Hourly)
-17.8 °C -17.8 °C 0 hPa Calm     Humidity % 0 mm
00:07 -16.9 °C -17.1 °C 34073.3 hPa Calm     97 % 0 mm
00:12 -16.8 °C -17.1 °C 34073.3 hPa Calm     97 % 0 mm
00:17 -16.8 °C -17 °C 34073.3 hPa Calm     97 % 0 mm
00:22 -16.8 °C -17 °C 34073.3 hPa Calm     97 % 0 mm
00:27 -16.8 °C -17 °C 34063.2 hPa Calm     97 % 0 mm
00:37 -16.8 °C -17 °C 34073.3 hPa Calm     97 % 0 mm
00:42 -16.8 °C -17 °C 34063.2 hPa Calm     97 % 0 mm
00:52 -16.8 °C -17 °C 34063.2 hPa Calm     97 % 0 mm
00:57 -16.8 °C -17 °C 34063.2 hPa Calm     97 % 7.62 mm
01:02 -16.8 °C -17 °C 34063.2 hPa Calm     97 % 12.7 mm
01:07 -16.7 °C -16.9 °C 34063.2 hPa Calm     97 % 12.7 mm
01:12 -16.7 °C -16.9 °C 34049.6 hPa Calm     97 % 12.7 mm
01:22 -16.7 °C -16.9 °C 34049.6 hPa Calm     97 % 12.7 mm
01:32 -16.7 °C -16.9 °C 34039.5 hPa Calm     97 % 12.7 mm
01:37 -16.7 °C -16.9 °C 34029.3 hPa Calm     97 % 12.7 mm
01:42 -16.7 °C -16.9 °C 34029.3 hPa Calm     97 % 12.7 mm
01:47 -16.7 °C -16.9 °C 34039.5 hPa Calm     97 % 12.7 mm
01:52 -16.7 °C -16.9 °C 34039.5 hPa Calm     97 % 7.62 mm
01:57 -16.7 °C -16.9 °C 34029.3 hPa Calm     97 % 7.62 mm
02:02 -16.7 °C -16.9 °C 34029.3 hPa Calm     97 % 0 mm
02:07 -16.8 °C -17 °C 34029.3 hPa Calm     97 % 0 mm
02:12 -16.8 °C -17 °C 34029.3 hPa West 2.6 km/h   97 % 0 mm
02:17 -16.8 °C -17 °C 34015.8 hPa Calm   5.1 km/h 97 % 0 mm
02:22 -16.8 °C -17.1 °C 34015.8 hPa Calm   5.1 km/h 97 % 0 mm
02:27 -16.8 °C -17.1 °C 34015.8 hPa Calm   2.6 km/h 97 % 0 mm
02:32 -16.8 °C -17.1 °C 34015.8 hPa Calm   2.6 km/h 97 % 0 mm
02:37 -16.8 °C -17.1 °C 34015.8 hPa Calm   2.6 km/h 97 % 0 mm
02:42 -16.8 °C -17.1 °C 34015.8 hPa Calm   2.6 km/h 97 % 0 mm
02:47 -16.8 °C -17.1 °C 34005.6 hPa Calm   2.6 km/h 97 % 0 mm
02:52 -16.8 °C -17.1 °C 34005.6 hPa Calm   2.6 km/h 97 % 0 mm
02:57 -16.8 °C -17.1 °C 34005.6 hPa Calm   2.6 km/h 97 % 0 mm
03:02 -16.8 °C -17.1 °C 33992.1 hPa West 2.6 km/h 5.1 km/h 97 % 0 mm
03:07 -16.8 °C -17.1 °C 33992.1 hPa Calm   5.1 km/h 97 % 0 mm
03:17 -16.8 °C -17.1 °C 33981.9 hPa Calm   5.1 km/h 97 % 0 mm
03:22 -16.8 °C -17.1 °C 33981.9 hPa Calm   5.1 km/h 97 % 0 mm
03:32 -16.8 °C -17.1 °C 33971.7 hPa Calm   7.7 km/h 97 % 0 mm
03:37 -16.8 °C -17.1 °C 33971.7 hPa Calm   7.7 km/h 97 % 0 mm
03:42 -16.8 °C -17.1 °C 33971.7 hPa Calm   2.6 km/h 97 % 0 mm
03:47 -16.8 °C -17 °C 33971.7 hPa Calm   2.6 km/h 97 % 0 mm
03:52 -16.8 °C -17 °C 33958.2 hPa Calm     97 % 0 mm
03:57 -16.8 °C -17.1 °C 33958.2 hPa Calm   2.6 km/h 97 % 0 mm
04:02 -16.8 °C -17.1 °C 33958.2 hPa Calm   2.6 km/h 97 % 0 mm
04:07 -16.8 °C -17 °C 33948 hPa Calm   5.1 km/h 97 % 0 mm
04:12 -16.8 °C -17 °C 33948 hPa Calm   5.1 km/h 97 % 0 mm
04:17 -16.8 °C -17 °C 33948 hPa Calm   5.1 km/h 97 % 0 mm
04:22 -16.8 °C -17 °C 33937.9 hPa Calm   2.6 km/h 97 % 0 mm
04:27 -16.8 °C -17 °C 33937.9 hPa Calm   2.6 km/h 97 % 0 mm
04:32 -16.8 °C -17 °C 33937.9 hPa West 2.6 km/h 2.6 km/h 97 % 0 mm
04:37 -16.8 °C -17 °C 33937.9 hPa Calm   2.6 km/h 97 % 0 mm
04:42 -16.7 °C -16.9 °C 33937.9 hPa Calm   2.6 km/h 97 % 0 mm
04:47 -16.7 °C -16.9 °C 33924.3 hPa Calm   2.6 km/h 97 % 0 mm
04:52 -16.7 °C -16.9 °C 33924.3 hPa Calm   2.6 km/h 97 % 0 mm
04:57 -16.7 °C -16.9 °C 33924.3 hPa Calm   2.6 km/h 97 % 0 mm
05:02 -16.7 °C -16.9 °C 33914.2 hPa Calm   2.6 km/h 97 % 0 mm
05:12 -16.7 °C -16.9 °C 33900.6 hPa Calm   2.6 km/h 97 % 0 mm
05:17 -16.7 °C -16.9 °C 33900.6 hPa Calm   2.6 km/h 97 % 0 mm
05:22 -16.7 °C -16.9 °C 33890.5 hPa Calm   2.6 km/h 97 % 0 mm
05:27 -16.7 °C -16.9 °C 33880.3 hPa Calm   5.1 km/h 97 % 0 mm
05:32 -16.7 °C -16.9 °C 33880.3 hPa Calm   5.1 km/h 97 % 0 mm
05:37 -16.7 °C -16.9 °C 33880.3 hPa Calm   5.1 km/h 97 % 0 mm
05:42 -16.7 °C -16.9 °C 33866.8 hPa Calm   5.1 km/h 97 % 0 mm
05:47 -16.6 °C -16.8 °C 33866.8 hPa Calm   5.1 km/h 97 % 0 mm
05:52 -16.6 °C -16.8 °C 33856.6 hPa Calm   5.1 km/h 97 % 0 mm
05:57 -16.6 °C -16.8 °C 33856.6 hPa Calm   10.3 km/h 97 % 0 mm
06:02 -16.6 °C -16.8 °C 33843.1 hPa Calm   10.3 km/h 97 % 0 mm
06:07 -16.5 °C -16.7 °C 33843.1 hPa Calm   10.3 km/h 97 % 0 mm
06:12 -16.4 °C -16.7 °C 33843.1 hPa Calm   10.3 km/h 97 % 0 mm
06:17 -16.4 °C -16.7 °C 33832.9 hPa West 2.6 km/h 10.3 km/h 97 % 0 mm
06:22 -16.4 °C -16.6 °C 33832.9 hPa West 2.6 km/h 10.3 km/h 97 % 7.62 mm
06:27 -16.4 °C -16.6 °C 33832.9 hPa Calm   10.3 km/h 97 % 7.62 mm
06:32 -16.3 °C -16.6 °C 33822.8 hPa Calm   10.3 km/h 97 % 7.62 mm
06:42 -16.3 °C -16.6 °C 33822.8 hPa Calm   7.7 km/h 97 % 7.62 mm
06:47 -16.3 °C -16.5 °C 33822.8 hPa Calm   7.7 km/h 97 % 12.7 mm
06:52 -16.3 °C -16.5 °C 33809.2 hPa West 2.6 km/h 7.7 km/h 97 % 12.7 mm
07:02 -16.3 °C -16.5 °C 33809.2 hPa WSW 2.6 km/h 10.3 km/h 97 % 12.7 mm
07:07 -16.3 °C -16.5 °C 33799.1 hPa Calm   7.7 km/h 97 % 12.7 mm
07:12 -16.3 °C -16.5 °C 33799.1 hPa ESE 5.1 km/h 7.7 km/h 97 % 12.7 mm
07:17 -16.3 °C -16.5 °C 33799.1 hPa West 2.6 km/h 7.7 km/h 97 % 12.7 mm
07:22 -16.3 °C -16.5 °C 33788.9 hPa Calm   7.7 km/h 97 % 12.7 mm
07:27 -16.2 °C -16.4 °C 33788.9 hPa WNW 5.1 km/h 7.7 km/h 97 % 12.7 mm
07:32 -16.2 °C -16.4 °C 33788.9 hPa Calm   7.7 km/h 97 % 20.32 mm
07:37 -16.2 °C -16.4 °C 33788.9 hPa West 2.6 km/h 7.7 km/h 97 % 20.32 mm
07:42 -16.2 °C -16.4 °C 33775.4 hPa SW 2.6 km/h 7.7 km/h 97 % 25.4 mm
07:47 -16.2 °C -16.4 °C 33775.4 hPa Calm   10.3 km/h 97 % 25.4 mm
07:52 -16.2 °C -16.4 °C 33765.2 hPa Calm   10.3 km/h 97 % 25.4 mm
07:57 -16.2 °C -16.4 °C 33765.2 hPa Calm   10.3 km/h 97 % 33.02 mm
08:02 -16.2 °C -16.4 °C 33751.6 hPa WNW 5.1 km/h 10.3 km/h 97 % 25.4 mm
08:07 -16.2 °C -16.4 °C 33751.6 hPa Calm   15.6 km/h 97 % 25.4 mm
08:12 -16.3 °C -16.6 °C 33751.6 hPa WNW 2.6 km/h 15.6 km/h 96 % 25.4 mm
08:17 -16.3 °C -16.6 °C 33741.5 hPa Calm   7.7 km/h 96 % 25.4 mm
08:22 -16.2 °C -16.4 °C 33741.5 hPa Calm   10.3 km/h 97 % 25.4 mm
08:27 -16.2 °C -16.4 °C 33731.3 hPa SSW 2.6 km/h 10.3 km/h 97 % 25.4 mm
08:32 -16.2 °C -16.4 °C 33731.3 hPa Calm   10.3 km/h 97 % 20.32 mm
08:37 -16.2 °C -16.6 °C 33717.8 hPa Calm   12.9 km/h 96 % 12.7 mm
08:42 -16.2 °C -16.6 °C 33717.8 hPa Calm   12.9 km/h 96 % 12.7 mm
08:47 -16.2 °C -16.5 °C 33707.6 hPa East 2.6 km/h 12.9 km/h 96 % 12.7 mm
08:52 -16.2 °C -16.5 °C 33707.6 hPa Calm   10.3 km/h 96 % 20.32 mm
08:57 -16.2 °C -16.5 °C 33707.6 hPa Calm   7.7 km/h 96 % 12.7 mm
09:02 -16.2 °C -16.5 °C 33694.1 hPa NW 2.6 km/h 10.3 km/h 96 % 20.32 mm
09:07 -16.2 °C -16.5 °C 33694.1 hPa Calm   12.9 km/h 96 % 25.4 mm
09:12 -16.2 °C -16.5 °C 33683.9 hPa NNW 10.3 km/h 12.9 km/h 96 % 33.02 mm
09:17 -16.2 °C -16.5 °C 33683.9 hPa NW 2.6 km/h 12.9 km/h 96 % 25.4 mm
09:32 -16.2 °C -16.5 °C 33660.2 hPa NNE 7.7 km/h 12.9 km/h 96 % 38.1 mm
09:37 -16.2 °C -16.5 °C 33660.2 hPa NNW 7.7 km/h 15.6 km/h 96 % 38.1 mm
09:47 -16.1 °C -16.4 °C 33650.1 hPa NW 2.6 km/h 18.2 km/h 96 % 45.72 mm
09:52 -16.1 °C -16.4 °C 33650.1 hPa NW 2.6 km/h 18.2 km/h 96 % 38.1 mm
10:02 -16.1 °C -16.4 °C 33639.9 hPa West 2.6 km/h 25.9 km/h 96 % 38.1 mm
10:07 -16.1 °C -16.4 °C 33639.9 hPa Calm   25.9 km/h 96 % 38.1 mm
10:12 -16.1 °C -16.4 °C 33639.9 hPa WNW 2.6 km/h 18.2 km/h 96 % 33.02 mm
10:22 -16 °C -16.3 °C 33626.4 hPa WNW 2.6 km/h 18.2 km/h 96 % 38.1 mm
10:27 -16 °C -16.3 °C 33626.4 hPa NNW 2.6 km/h 18.2 km/h 96 % 38.1 mm
10:37 -16 °C -16.2 °C 33616.2 hPa NNE 5.1 km/h 15.6 km/h 97 % 38.1 mm
10:42 -15.9 °C -16.2 °C 33616.2 hPa WNW 2.6 km/h 15.6 km/h 97 % 38.1 mm
10:47 -15.9 °C -16.2 °C 33602.7 hPa West 2.6 km/h 15.6 km/h 97 % 38.1 mm
10:52 -15.9 °C -16.1 °C 33592.5 hPa Calm   15.6 km/h 97 % 50.8 mm
10:57 -15.9 °C -16.1 °C 33582.3 hPa West 2.6 km/h 12.9 km/h 97 % 45.72 mm
11:02 -15.9 °C -16.1 °C 33568.8 hPa WNW 5.1 km/h 12.9 km/h 97 % 58.42 mm
11:07 -15.8 °C -16 °C 33568.8 hPa North 7.7 km/h 28.5 km/h 97 % 58.42 mm
11:12 -15.8 °C -16 °C 33558.6 hPa North 2.6 km/h 28.5 km/h 97 % 50.8 mm
11:17 -15.7 °C -15.9 °C 33545.1 hPa West 7.7 km/h 28.5 km/h 97 % 50.8 mm
11:22 -15.7 °C -15.9 °C 33545.1 hPa Calm   15.6 km/h 97 % 50.8 mm
11:27 -15.7 °C -16 °C 33545.1 hPa WSW 5.1 km/h 20.8 km/h 96 % 45.72 mm
11:32 -15.7 °C -16 °C 33558.6 hPa East 2.6 km/h 20.8 km/h 96 % 38.1 mm
11:42 -15.6 °C -15.8 °C 33558.6 hPa Calm   12.9 km/h 97 % 25.4 mm
11:47 -15.6 °C -15.8 °C 33558.6 hPa WSW 2.6 km/h 7.7 km/h 97 % 20.32 mm
11:52 -15.5 °C -15.7 °C 33558.6 hPa West 2.6 km/h 10.3 km/h 97 % 12.7 mm
11:57 -15.4 °C -15.7 °C 33545.1 hPa Calm   15.6 km/h 97 % 12.7 mm
12:02 -15.4 °C -15.6 °C 33545.1 hPa West 2.6 km/h 15.6 km/h 97 % 7.62 mm
12:07 -15.3 °C -15.6 °C 33545.1 hPa NW 5.1 km/h 12.9 km/h 97 % 7.62 mm
12:12 -15.3 °C -15.6 °C 33534.9 hPa Calm   12.9 km/h 97 % 0 mm
12:22 -15.2 °C -15.4 °C 33534.9 hPa WSW 2.6 km/h 12.9 km/h 97 % 0 mm
12:27 -15.2 °C -15.4 °C 33534.9 hPa West 2.6 km/h 12.9 km/h 97 % 0 mm
12:32 -15.2 °C -15.4 °C 33534.9 hPa Calm   12.9 km/h 97 % 0 mm
12:37 -15.1 °C -15.3 °C 33524.8 hPa West 5.1 km/h 10.3 km/h 97 % 0 mm
12:42 -15.1 °C -15.3 °C 33524.8 hPa Calm   12.9 km/h 97 % 7.62 mm
12:47 -15.1 °C -15.3 °C 33511.2 hPa Calm   12.9 km/h 97 % 12.7 mm
12:52 -14.9 °C -15.2 °C 33511.2 hPa Calm   12.9 km/h 97 % 12.7 mm
12:57 -14.9 °C -15.2 °C 33511.2 hPa SW 5.1 km/h 5.1 km/h 97 % 20.32 mm
13:02 -14.8 °C -15.1 °C 33511.2 hPa WSW 10.3 km/h 10.3 km/h 97 % 25.4 mm
13:07 -14.8 °C -15.1 °C 33511.2 hPa Calm   12.9 km/h 97 % 38.1 mm
13:12 -14.7 °C -14.9 °C 33511.2 hPa WSW 5.1 km/h 12.9 km/h 97 % 38.1 mm
13:17 -14.6 °C -14.8 °C 33511.2 hPa SW 5.1 km/h 15.6 km/h 97 % 50.8 mm
13:22 -14.6 °C -14.8 °C 33511.2 hPa WSW 2.6 km/h 15.6 km/h 97 % 58.42 mm
13:27 -14.5 °C -14.7 °C 33511.2 hPa WSW 5.1 km/h 12.9 km/h 97 % 58.42 mm
13:32 -14.4 °C -14.6 °C 33501.1 hPa WSW 2.6 km/h 12.9 km/h 97 % 58.42 mm
13:37 -14.3 °C -14.6 °C 33501.1 hPa SW 7.7 km/h 12.9 km/h 97 % 63.5 mm
13:42 -14.2 °C -14.4 °C 33501.1 hPa Calm   12.9 km/h 97 % 58.42 mm
13:47 -14.1 °C -14.3 °C 33501.1 hPa WSW 7.7 km/h 10.3 km/h 97 % 58.42 mm
13:52 -13.9 °C -14.1 °C 33501.1 hPa WSW 5.1 km/h 10.3 km/h 97 % 50.8 mm
13:57 -13.8 °C -14.2 °C 33490.9 hPa SW 5.1 km/h 12.9 km/h 96 % 45.72 mm
14:02 -13.8 °C -14.2 °C 33490.9 hPa SW 10.3 km/h 12.9 km/h 96 % 38.1 mm
14:07 -13.8 °C -14.2 °C 33490.9 hPa SW 7.7 km/h 20.8 km/h 95 % 38.1 mm
14:12 -13.7 °C -14.1 °C 33490.9 hPa SW 7.7 km/h 20.8 km/h 95 % 25.4 mm
14:17 -13.6 °C -14 °C 33490.9 hPa WSW 12.9 km/h 20.8 km/h 95 % 20.32 mm
14:22 -13.5 °C -14.1 °C 33490.9 hPa East 5.1 km/h 20.8 km/h 93 % 12.7 mm
14:27 -13.3 °C -14 °C 33490.9 hPa SW 10.3 km/h 33.6 km/h 92 % 12.7 mm
14:32 -13.2 °C -13.9 °C 33490.9 hPa WSW 12.9 km/h 33.6 km/h 92 % 12.7 mm
14:42 -13 °C -13.8 °C 33490.9 hPa South 2.6 km/h 23.3 km/h 91 % 7.62 mm
14:47 -13.1 °C -13.8 °C 33490.9 hPa WSW 5.1 km/h 15.6 km/h 91 % 7.62 mm
14:52 -13.2 °C -13.9 °C 33490.9 hPa SW 5.1 km/h 23.3 km/h 91 % 12.7 mm
14:57 -13.4 °C -14.4 °C 33490.9 hPa SW 10.3 km/h 23.3 km/h 89 % 38.1 mm
15:02 -13.6 °C -14.4 °C 33490.9 hPa SSE 10.3 km/h 33.6 km/h 91 % 71.12 mm
15:12 -13.9 °C -14.8 °C 33511.2 hPa ESE 25.9 km/h 25.9 km/h 90 % 76.2 mm
15:17 -14.2 °C -14.9 °C 33511.2 hPa NE 7.7 km/h 28.5 km/h 91 % 91.44 mm
15:22 -14.2 °C -14.9 °C 33511.2 hPa SW 15.6 km/h 36.2 km/h 92 % 104.14 mm
15:27 -14.2 °C -14.8 °C 33511.2 hPa SW 12.9 km/h 36.2 km/h 92 % 109.22 mm
15:37 -14.1 °C -14.7 °C 33511.2 hPa ESE 7.7 km/h 31.1 km/h 92 % 109.22 mm
15:42 -14.1 °C -14.7 °C 33511.2 hPa SW 7.7 km/h 20.8 km/h 92 % 109.22 mm
15:47 -14.1 °C -14.7 °C 33511.2 hPa SW 7.7 km/h 36.2 km/h 93 % 109.22 mm
15:52 -14.1 °C -14.7 °C 33524.8 hPa SSE 2.6 km/h 36.2 km/h 93 % 109.22 mm
15:57 -14.1 °C -14.6 °C 33524.8 hPa Calm   20.8 km/h 94 % 58.42 mm
16:02 -14 °C -14.6 °C 33524.8 hPa SW 2.6 km/h 20.8 km/h 93 % 45.72 mm
16:12 -13.9 °C -14.6 °C 33524.8 hPa South 5.1 km/h 20.8 km/h 93 % 38.1 mm
16:17 -13.9 °C -14.5 °C 33534.9 hPa WSW 5.1 km/h 23.3 km/h 93 % 20.32 mm
16:22 -13.8 °C -14.3 °C 33534.9 hPa WSW 10.3 km/h 23.3 km/h 94 % 12.7 mm
16:27 -13.8 °C -14.4 °C 33534.9 hPa SSE 5.1 km/h 18.2 km/h 93 % 12.7 mm
16:32 -13.8 °C -14.4 °C 33545.1 hPa East 7.7 km/h 23.3 km/h 93 % 12.7 mm
16:42 -13.8 °C -14.3 °C 33545.1 hPa Calm   18.2 km/h 94 % 12.7 mm
16:47 -13.8 °C -14.3 °C 33545.1 hPa SW 7.7 km/h 12.9 km/h 94 % 12.7 mm
16:52 -13.7 °C -14.3 °C 33545.1 hPa SW 10.3 km/h 20.8 km/h 93 % 12.7 mm
16:57 -13.7 °C -14.3 °C 33545.1 hPa SW 5.1 km/h 20.8 km/h 93 % 12.7 mm
17:02 -13.7 °C -14.3 °C 33545.1 hPa SSW 2.6 km/h 20.8 km/h 93 % 7.62 mm
17:12 -13.7 °C -14.3 °C 33558.6 hPa SW 2.6 km/h 12.9 km/h 93 % 7.62 mm
17:17 -13.7 °C -14.3 °C 33558.6 hPa Calm   12.9 km/h 93 % 7.62 mm
17:22 -13.7 °C -14.2 °C 33558.6 hPa SSW 2.6 km/h 12.9 km/h 94 % 7.62 mm
17:32 -13.7 °C -14.2 °C 33558.6 hPa Calm   7.7 km/h 94 % 7.62 mm
17:37 -13.7 °C -14.2 °C 33558.6 hPa Calm   7.7 km/h 94 % 0 mm
17:44 -13.8 °C -14.3 °C 33558.6 hPa Calm   10.3 km/h 94 % 0 mm
17:52 -13.8 °C -14.3 °C 33568.8 hPa Calm   10.3 km/h 94 % 0 mm
17:57 -13.8 °C -14.3 °C 33568.8 hPa SW 2.6 km/h 10.3 km/h 94 % 0 mm
18:02 -13.8 °C -14.3 °C 33582.3 hPa WSW 2.6 km/h 10.3 km/h 94 % 7.62 mm
18:12 -13.9 °C -14.4 °C 33582.3 hPa South 5.1 km/h 12.9 km/h 94 % 25.4 mm
18:17 -13.9 °C -14.4 °C 33582.3 hPa SSW 5.1 km/h 12.9 km/h 94 % 25.4 mm
18:22 -14 °C -14.6 °C 33592.5 hPa WSW 5.1 km/h 18.2 km/h 93 % 33.02 mm
18:37 -14.1 °C -14.8 °C 33592.5 hPa SW 2.6 km/h 15.6 km/h 92 % 33.02 mm
18:42 -14.2 °C -14.8 °C 33592.5 hPa WSW 2.6 km/h 10.3 km/h 93 % 33.02 mm
18:47 -14.2 °C -14.7 °C 33592.5 hPa Calm   7.7 km/h 94 % 33.02 mm
18:52 -14.2 °C -14.7 °C 33592.5 hPa Calm   7.7 km/h 94 % 33.02 mm
18:57 -14.2 °C -14.6 °C 33602.7 hPa SW 5.1 km/h 7.7 km/h 95 % 33.02 mm
19:02 -14.1 °C -14.6 °C 33602.7 hPa SW 2.6 km/h 7.7 km/h 94 % 25.4 mm
19:12 -14.1 °C -14.6 °C 33602.7 hPa SW 2.6 km/h 18.2 km/h 94 % 7.62 mm
19:17 -14.1 °C -14.6 °C 33602.7 hPa South 2.6 km/h 18.2 km/h 94 % 0 mm
19:22 -14.1 °C -14.6 °C 33602.7 hPa SW 15.6 km/h 15.6 km/h 94 % 0 mm
19:27 -14.1 °C -14.6 °C 33602.7 hPa WSW 12.9 km/h 15.6 km/h 94 % 0 mm
19:32 -14.1 °C -14.6 °C 33602.7 hPa SW 7.7 km/h 15.6 km/h 94 % 0 mm
19:37 -14 °C -14.5 °C 33616.2 hPa SW 2.6 km/h 15.6 km/h 94 % 0 mm
19:42 -14 °C -14.4 °C 33616.2 hPa SW 5.1 km/h 12.9 km/h 95 % 0 mm
19:47 -13.9 °C -14.3 °C 33616.2 hPa SW 5.1 km/h 12.9 km/h 95 % 0 mm
19:52 -13.9 °C -14.4 °C 33626.4 hPa SE 7.7 km/h 31.1 km/h 94 % 12.7 mm
19:57 -13.9 °C -14.4 °C 33626.4 hPa ENE 5.1 km/h 31.1 km/h 94 % 12.7 mm
20:02 -13.9 °C -14.6 °C 33616.2 hPa SW 7.7 km/h 31.1 km/h 93 % 12.7 mm
20:12 -14 °C -14.7 °C 33626.4 hPa South 5.1 km/h 23.3 km/h 92 % 12.7 mm
20:17 -14 °C -14.7 °C 33626.4 hPa South 5.1 km/h 25.9 km/h 92 % 12.7 mm
20:22 -14 °C -14.7 °C 33626.4 hPa SSE 2.6 km/h 25.9 km/h 92 % 12.7 mm
20:27 -14.1 °C -14.7 °C 33626.4 hPa SSE 5.1 km/h 20.8 km/h 93 % 12.7 mm
20:32 -14.1 °C -14.7 °C 33626.4 hPa SSW 7.7 km/h 15.6 km/h 93 % 20.32 mm
20:37 -14.1 °C -14.7 °C 33639.9 hPa SW 7.7 km/h 23.3 km/h 93 % 20.32 mm
20:42 -14.1 °C -14.7 °C 33639.9 hPa WSW 10.3 km/h 23.3 km/h 93 % 25.4 mm
20:47 -14 °C -14.6 °C 33639.9 hPa East 2.6 km/h 23.3 km/h 93 % 25.4 mm
20:52 -14 °C -14.6 °C 33639.9 hPa WNW 12.9 km/h 18.2 km/h 93 % 20.32 mm
20:57 -14 °C -14.6 °C 33639.9 hPa SSW 2.6 km/h 20.8 km/h 93 % 12.7 mm
21:02 -14 °C -14.7 °C 33639.9 hPa SW 10.3 km/h 23.3 km/h 92 % 12.7 mm
21:07 -14 °C -14.7 °C 33639.9 hPa SW 15.6 km/h 23.3 km/h 92 % 12.7 mm
21:12 -14 °C -14.7 °C 33650.1 hPa SW 7.7 km/h 23.3 km/h 92 % 12.7 mm
21:22 -14.1 °C -14.7 °C 33650.1 hPa SW 2.6 km/h 23.3 km/h 93 % 12.7 mm
21:27 -14.1 °C -14.6 °C 33660.2 hPa SW 5.1 km/h 18.2 km/h 94 % 12.7 mm
21:32 -14.1 °C -14.6 °C 33660.2 hPa SW 2.6 km/h 12.9 km/h 94 % 12.7 mm
21:37 -14.1 °C -14.6 °C 33650.1 hPa WSW 5.1 km/h 15.6 km/h 94 % 12.7 mm
21:42 -14.1 °C -14.6 °C 33660.2 hPa WSW 7.7 km/h 15.6 km/h 94 % 7.62 mm
21:52 -14 °C -14.4 °C 33660.2 hPa SW 5.1 km/h 12.9 km/h 95 % 0 mm
21:57 -14 °C -14.4 °C 33660.2 hPa SSE 7.7 km/h 12.9 km/h 95 % 7.62 mm
22:12 -13.9 °C -14.3 °C 33660.2 hPa SSW 2.6 km/h 15.6 km/h 95 % 12.7 mm
22:17 -13.9 °C -14.3 °C 33673.8 hPa Calm   18.2 km/h 95 % 12.7 mm
22:22 -13.9 °C -14.3 °C 33673.8 hPa Calm   18.2 km/h 95 % 12.7 mm
22:27 -13.9 °C -14.3 °C 33660.2 hPa Calm   18.2 km/h 95 % 25.4 mm
22:42 -13.9 °C -14.3 °C 33673.8 hPa Calm   7.7 km/h 95 % 33.02 mm
22:47 -13.9 °C -14.3 °C 33673.8 hPa SW 2.6 km/h 7.7 km/h 95 % 38.1 mm
22:52 -13.9 °C -14.3 °C 33673.8 hPa SW 2.6 km/h 7.7 km/h 95 % 38.1 mm
23:02 -13.9 °C -14.3 °C 33683.9 hPa NE 2.6 km/h 15.6 km/h 95 % 33.02 mm
23:12 -14.1 °C -14.7 °C 33683.9 hPa Calm   15.6 km/h 93 % 33.02 mm
23:17 -14.2 °C -14.8 °C 33683.9 hPa Calm   15.6 km/h 93 % 25.4 mm
23:22 -14.2 °C -14.8 °C 33683.9 hPa Calm   15.6 km/h 93 % 20.32 mm
23:27 -14.2 °C -14.7 °C 33683.9 hPa Calm   10.3 km/h 94 % 12.7 mm
23:32 -14.2 °C -14.7 °C 33683.9 hPa Calm   5.1 km/h 94 % 12.7 mm
23:37 -14.2 °C -14.6 °C 33683.9 hPa ESE 5.1 km/h 5.1 km/h 95 % 12.7 mm
23:42 -14.1 °C -14.4 °C 33683.9 hPa ESE 5.1 km/h 7.7 km/h 95 % 7.62 mm
23:47 -14 °C -14.4 °C 33683.9 hPa SW 2.6 km/h 12.9 km/h 95 % 7.62 mm
23:52 -14 °C -14.4 °C 33683.9 hPa SW 5.1 km/h 12.9 km/h 95 % 7.62 mm
23:57 -13.9 °C -14.3 °C 33683.9 hPa Calm   12.9 km/h 95 % 7.62 mm
Meteo18
Compliments of Weather Underground - 4 mb

Script developed by  Jim McMurry - jmcmurry@mwt.net Adapted for the template by  Wim van der Kuil - Leuven-Template.eu

You find our weather info also at:

European Weather Network

Weather Underground

Equipment we use:

Weather-station
Davis Vue

Weather-program
Meteobridge

Weather-server
Raspberry PI 2 B+

Provider
1 and 1

Davis Vue

Meteobridge

Raspberry PI 2 B+

1 and 1